• In Netherlands
  • List of Countries
  • For 7 days
  • Water Temperature
  • Satellite Maps
  • Weather Map
  • Weather Widgets
  • user-avatar
    Login

    Hourly Weather Etchmiadzin

    Today, 23 January, Monday

    Time Temperature Precipitation Wind Pressure Humidity
    00:00 -9°C° 0 mm 1 mps 689 mmHg 86%
    01:00 -9°C° 0 mm 1 mps 690 mmHg 86%
    02:00 -9°C° 0 mm 1 mps 690 mmHg 86%
    03:00 -9°C° 0 mm 1 mps 690 mmHg 86%
    04:00 -10°C° 0 mm 1 mps 690 mmHg 87%
    05:00 -11°C° 0 mm 1 mps 690 mmHg 87%
    06:00 -11°C° 0 mm 1 mps 690 mmHg 87%
    07:00 -9°C° 0 mm 1 mps 691 mmHg 85%
    08:00 -7°C° 0 mm 1 mps 691 mmHg 84%
    09:00 -3°C° 0 mm 1 mps 692 mmHg 83%
    10:00 -2°C° 0 mm 1 mps 692 mmHg 81%
    11:00 0°C° 0 mm 1 mps 692 mmHg 80%
    12:00 +2°C° 0 mm 1 mps 692 mmHg 78%
    13:00 +2°C° 0 mm 1 mps 691 mmHg 80%
    14:00 +2°C° 0 mm 1 mps 691 mmHg 81%
    15:00 +2°C° 0 mm 1 mps 691 mmHg 83%
    16:00 -1°C° 0 mm 1 mps 690 mmHg 86%
    17:00 -6°C° 0 mm 1 mps 689 mmHg 88%
    18:00 -10°C° 0 mm 1 mps 688 mmHg 91%
    19:00 -10°C° 0 mm 1 mps 689 mmHg 90%
    20:00 -11°C° 0 mm 1 mps 689 mmHg 90%
    21:00 -11°C° 0 mm 1 mps 689 mmHg 89%
    22:00 -11°C° 0 mm 1 mps 689 mmHg 89%
    23:00 -11°C° 0 mm 1 mps 689 mmHg 90%

    Tomorrow, 24 January, Tuesday

    Time Temperature Precipitation Wind Pressure Humidity
    00:00 -11°C° 0 mm 1 mps 690 mmHg 90%
    01:00 -12°C° 0 mm 1 mps 690 mmHg 89%
    02:00 -12°C° 0 mm 1 mps 690 mmHg 89%
    03:00 -12°C° 0 mm 1 mps 690 mmHg 89%
    04:00 -12°C° 0 mm 1 mps 690 mmHg 89%
    05:00 -12°C° 0 mm 1 mps 690 mmHg 88%
    06:00 -12°C° 0 mm 1 mps 690 mmHg 88%
    07:00 -9°C° 0 mm 1 mps 691 mmHg 86%
    08:00 -6°C° 0 mm 1 mps 692 mmHg 84%
    09:00 -3°C° 0 mm 1 mps 693 mmHg 82%
    10:00 -1°C° 0 mm 1 mps 692 mmHg 81%
    11:00 +1°C° 0 mm 1 mps 692 mmHg 80%
    12:00 +3°C° 0 mm 1 mps 692 mmHg 79%
    13:00 +3°C° 0 mm 1 mps 692 mmHg 81%
    14:00 +3°C° 0 mm 1 mps 691 mmHg 82%
    15:00 +3°C° 0 mm 1 mps 690 mmHg 84%
    16:00 0°C° 0 mm 1 mps 690 mmHg 86%
    17:00 -4°C° 0 mm 1 mps 689 mmHg 88%
    18:00 -8°C° 0 mm 1 mps 688 mmHg 90%
    19:00 -9°C° 0 mm 1 mps 688 mmHg 89%
    20:00 -10°C° 0 mm 1 mps 688 mmHg 89%
    21:00 -11°C° 0 mm 1 mps 688 mmHg 89%
    22:00 -11°C° 0 mm 1 mps 688 mmHg 88%
    23:00 -11°C° 0 mm 1 mps 687 mmHg 87%

    Day after tomorrow, 25 January, Wednesday

    Time Temperature Precipitation Wind Pressure Humidity
    00:00 -11°C° 0 mm 1 mps 687 mmHg 85%
    01:00 -10°C° 0 mm 1 mps 687 mmHg 84%
    02:00 -9°C° 0 mm 1 mps 687 mmHg 83%
    03:00 -9°C° 0 mm 1 mps 687 mmHg 81%
    04:00 -8°C° 0 mm 1 mps 686 mmHg 81%
    05:00 -8°C° 0 mm 1 mps 686 mmHg 80%
    06:00 -8°C° 0 mm 1 mps 685 mmHg 79%
    07:00 -6°C° 0 mm 1 mps 686 mmHg 79%
    08:00 -3°C° 0 mm 1 mps 686 mmHg 78%
    09:00 -1°C° 0 mm 1 mps 686 mmHg 78%
    10:00 -1°C° 0 mm 2 mps 686 mmHg 77%
    11:00 +1°C° 0 mm 2 mps 685 mmHg 76%
    12:00 +2°C° 0 mm 2 mps 684 mmHg 75%
    13:00 +2°C° 0 mm 2 mps 684 mmHg 77%
    14:00 +2°C° 0 mm 2 mps 683 mmHg 79%
    15:00 +2°C° 0 mm 2 mps 683 mmHg 81%
    16:00 +1°C° 0.1 mm 2 mps 683 mmHg 83%
    17:00 -1°C° 0.1 mm 2 mps 683 mmHg 84%
    18:00 -2°C° 0.1 mm 2 mps 683 mmHg 86%
    19:00 -2°C° 0.1 mm 2 mps 683 mmHg 86%
    20:00 -2°C° 0.1 mm 2 mps 683 mmHg 86%
    21:00 -2°C° 0.1 mm 2 mps 683 mmHg 87%
    22:00 -2°C° 0.2 mm 2 mps 682 mmHg 87%
    23:00 -2°C° 0.2 mm 2 mps 682 mmHg 88%

    26 January, Thursday

    Time Temperature Precipitation Wind Pressure Humidity
    00:00 -2°C° 0.2 mm 2 mps 682 mmHg 88%
    01:00 -2°C° 0.2 mm 2 mps 682 mmHg 88%
    02:00 -2°C° 0.2 mm 2 mps 682 mmHg 89%
    03:00 -2°C° 0.2 mm 2 mps 682 mmHg 89%
    04:00 -2°C° 0.2 mm 2 mps 681 mmHg 89%
    05:00 -2°C° 0.2 mm 2 mps 681 mmHg 90%
    06:00 -2°C° 0.2 mm 2 mps 681 mmHg 90%
    07:00 -2°C° 0.2 mm 2 mps 681 mmHg 89%
    08:00 -1°C° 0.2 mm 2 mps 681 mmHg 88%
    09:00 +1°C° 0.2 mm 2 mps 681 mmHg 87%
    10:00 +1°C° 0.3 mm 2 mps 681 mmHg 87%
    11:00 +2°C° 0.3 mm 2 mps 681 mmHg 86%
    12:00 +3°C° 0.3 mm 2 mps 680 mmHg 85%
    13:00 +3°C° 0.3 mm 2 mps 680 mmHg 86%
    14:00 +3°C° 0.3 mm 2 mps 679 mmHg 86%
    15:00 +3°C° 0.3 mm 2 mps 679 mmHg 87%
    16:00 +2°C° 0.3 mm 2 mps 679 mmHg 88%
    17:00 +1°C° 0.3 mm 2 mps 679 mmHg 89%
    18:00 -1°C° 0.3 mm 2 mps 679 mmHg 91%
    19:00 +1°C° 0.2 mm 1 mps 680 mmHg 91%
    20:00 +1°C° 0.2 mm 1 mps 680 mmHg 90%
    21:00 +1°C° 0.2 mm 1 mps 680 mmHg 90%
    22:00 0°C° 0.2 mm 1 mps 680 mmHg 90%
    23:00 0°C° 0.2 mm 1 mps 680 mmHg 91%

    27 January, Friday

    Time Temperature Precipitation Wind Pressure Humidity
    00:00 0°C° 0.2 mm 1 mps 680 mmHg 91%
    01:00 0°C° 0.3 mm 1 mps 680 mmHg 91%
    02:00 0°C° 0.3 mm 1 mps 680 mmHg 91%
    03:00 0°C° 0.3 mm 1 mps 680 mmHg 91%
    04:00 0°C° 0.4 mm 1 mps 681 mmHg 91%
    05:00 0°C° 0.4 mm 1 mps 681 mmHg 90%
    06:00 0°C° 0.4 mm 1 mps 681 mmHg 90%
    07:00 +1°C° 0.3 mm 1 mps 681 mmHg 89%
    08:00 +1°C° 0.3 mm 1 mps 682 mmHg 88%
    09:00 +2°C° 0.3 mm 1 mps 682 mmHg 86%
    10:00 +2°C° 0.3 mm 1 mps 682 mmHg 85%
    11:00 +3°C° 0.3 mm 1 mps 682 mmHg 83%
    12:00 +4°C° 0.3 mm 1 mps 681 mmHg 82%
    13:00 +4°C° 0.3 mm 1 mps 681 mmHg 82%
    14:00 +4°C° 0.3 mm 1 mps 681 mmHg 83%
    15:00 +4°C° 0.3 mm 1 mps 680 mmHg 84%
    16:00 +2°C° 0.2 mm 1 mps 680 mmHg 86%
    17:00 +1°C° 0.2 mm 1 mps 681 mmHg 88%
    18:00 0°C° 0.2 mm 1 mps 681 mmHg 90%
    19:00 0°C° 0.2 mm 1 mps 681 mmHg 90%
    20:00 0°C° 0.2 mm 1 mps 681 mmHg 90%
    21:00 0°C° 0.2 mm 1 mps 682 mmHg 90%
    22:00 0°C° 0.3 mm 1 mps 681 mmHg 90%
    23:00 -2°C° 0.3 mm 2 mps 681 mmHg 90%

    28 January, Saturday

    Time Temperature Precipitation Wind Pressure Humidity
    00:00 -2°C° 0.3 mm 2 mps 681 mmHg 91%
    01:00 -2°C° 0.6 mm 2 mps 681 mmHg 91%
    02:00 -2°C° 0.6 mm 2 mps 681 mmHg 92%
    03:00 0°C° 0.6 mm 1 mps 681 mmHg 93%
    04:00 0°C° 0.8 mm 1 mps 681 mmHg 93%
    05:00 0°C° 0.8 mm 1 mps 681 mmHg 93%
    06:00 0°C° 0.8 mm 1 mps 681 mmHg 93%
    07:00 0°C° 0.8 mm 1 mps 681 mmHg 93%
    08:00 0°C° 0.8 mm 1 mps 682 mmHg 93%
    09:00 +1°C° 0.8 mm 1 mps 682 mmHg 93%
    10:00 +1°C° 0.6 mm 1 mps 682 mmHg 92%
    11:00 +2°C° 0.6 mm 1 mps 682 mmHg 92%
    12:00 +1°C° 0.6 mm 2 mps 681 mmHg 91%
    13:00 +3°C° 0.6 mm 1 mps 681 mmHg 92%
    14:00 +3°C° 0.6 mm 1 mps 681 mmHg 92%
    15:00 +3°C° 0.6 mm 1 mps 681 mmHg 93%
    16:00 +2°C° 0.5 mm 1 mps 681 mmHg 93%
    17:00 +1°C° 0.5 mm 1 mps 681 mmHg 93%
    18:00 +1°C° 0.5 mm 1 mps 681 mmHg 93%
    19:00 0°C° 0.9 mm 1 mps 681 mmHg 94%
    20:00 -2°C° 0.9 mm 2 mps 681 mmHg 94%
    21:00 -2°C° 0.9 mm 2 mps 681 mmHg 94%
    22:00 -2°C° 1 mm 2 mps 681 mmHg 94%
    23:00 -3°C° 1 mm 2 mps 681 mmHg 94%
    Show more